Time,TemperatureF,DewpointF,PressureIn,WindDirection,WindDirectionDegrees,WindSpeedMPH,WindSpeedGustMPH,Humidity,HourlyPrecipIn,Conditions,Clouds,dailyrainin,SoftwareType,DateUTC
2013-02-26 00:01:00,29.0,23.0,-100.00,SW,215,0.0,1.0,78,-99.99,,,-99.99,,2013-02-26 05:01:00,
2013-02-26 00:12:00,29.0,23.0,-100.00,West,270,1.0,2.0,80,-99.99,,,-99.99,,2013-02-26 05:12:00,
2013-02-26 00:22:00,29.0,23.0,-100.00,West,270,1.0,2.0,80,-99.99,,,-99.99,,2013-02-26 05:22:00,
2013-02-26 00:32:00,29.0,23.0,-100.00,West,280,0.0,2.0,80,-99.99,,,-99.99,,2013-02-26 05:32:00,
2013-02-26 00:43:00,28.0,23.0,-100.00,NNE,30,1.0,2.0,82,-99.99,,,-99.99,,2013-02-26 05:43:00,
2013-02-26 00:52:00,28.0,23.0,-100.00,NNE,30,1.0,2.0,82,-99.99,,,-99.99,,2013-02-26 05:52:00,
2013-02-26 01:02:00,28.0,24.0,-100.00,WNW,300,1.0,2.0,83,-99.99,,,-99.99,,2013-02-26 06:02:00,
2013-02-26 01:11:00,28.0,24.0,-100.00,NW,315,1.0,3.0,84,-99.99,,,-99.99,,2013-02-26 06:11:00,
2013-02-26 01:21:00,28.0,24.0,-100.00,WNW,290,1.0,2.0,85,-99.99,,,-99.99,,2013-02-26 06:21:00,
2013-02-26 01:32:00,28.0,24.0,-100.00,WNW,290,1.0,2.0,85,-99.99,,,-99.99,,2013-02-26 06:32:00,
2013-02-26 01:42:00,28.0,24.0,-100.00,SW,230,1.0,2.0,86,-99.99,,,-99.99,,2013-02-26 06:42:00,
2013-02-26 01:52:00,28.0,24.0,-100.00,West,270,1.0,2.0,86,-99.99,,,-99.99,,2013-02-26 06:52:00,
2013-02-26 02:01:00,28.0,24.0,-100.00,West,270,1.0,2.0,86,-99.99,,,-99.99,,2013-02-26 07:01:00,
2013-02-26 02:11:00,28.0,24.0,-100.00,NNW,330,0.0,1.0,87,-99.99,,,-99.99,,2013-02-26 07:11:00,
2013-02-26 02:22:00,28.0,25.0,-100.00,West,265,1.0,2.0,88,-99.99,,,-99.99,,2013-02-26 07:22:00,
2013-02-26 02:32:00,28.0,25.0,-100.00,West,265,1.0,2.0,88,-99.99,,,-99.99,,2013-02-26 07:32:00,
2013-02-26 02:42:00,28.0,24.0,-100.00,West,280,1.0,1.0,88,-99.99,,,-99.99,,2013-02-26 07:42:00,
2013-02-26 02:51:00,27.0,24.0,-100.00,NW,325,2.0,2.0,88,-99.99,,,-99.99,,2013-02-26 07:51:00,
2013-02-26 03:02:00,27.0,24.0,-100.00,NW,325,2.0,2.0,88,-99.99,,,-99.99,,2013-02-26 08:02:00,
2013-02-26 03:11:00,27.0,24.0,-100.00,NNW,345,2.0,2.0,89,-99.99,,,-99.99,,2013-02-26 08:11:00,
2013-02-26 03:21:00,27.0,24.0,-100.00,NNW,345,2.0,2.0,89,-99.99,,,-99.99,,2013-02-26 08:21:00,
2013-02-26 03:32:00,27.0,24.0,-100.00,NNW,335,2.0,3.0,90,-99.99,,,-99.99,,2013-02-26 08:32:00,
2013-02-26 03:42:00,27.0,25.0,-100.00,WNW,300,0.0,2.0,90,-99.99,,,-99.99,,2013-02-26 08:42:00,
2013-02-26 03:52:00,28.0,26.0,-100.00,WNW,290,1.0,2.0,91,-99.99,,,-99.99,,2013-02-26 08:52:00,
2013-02-26 04:02:00,28.0,26.0,-100.00,WNW,290,1.0,2.0,91,-99.99,,,-99.99,,2013-02-26 09:02:00,
2013-02-26 04:11:00,28.0,26.0,-100.00,NW,305,1.0,1.0,91,-99.99,,,-99.99,,2013-02-26 09:11:00,
2013-02-26 04:21:00,28.0,26.0,-100.00,NW,305,2.0,2.0,91,-99.99,,,-99.99,,2013-02-26 09:21:00,
2013-02-26 04:32:00,28.0,26.0,-100.00,NW,305,2.0,2.0,91,-99.99,,,-99.99,,2013-02-26 09:32:00,
2013-02-26 04:43:00,28.0,25.0,-100.00,WSW,255,1.0,2.0,91,-99.99,,,-99.99,,2013-02-26 09:43:00,
2013-02-26 04:51:00,28.0,25.0,-100.00,WSW,255,1.0,2.0,91,-99.99,,,-99.99,,2013-02-26 09:51:00,
2013-02-26 05:01:00,28.0,26.0,-100.00,NW,310,2.0,2.0,91,-99.99,,,-99.99,,2013-02-26 10:01:00,
2013-02-26 05:11:00,27.0,25.0,-100.00,NNW,340,2.0,4.0,91,-99.99,,,-99.99,,2013-02-26 10:11:00,
2013-02-26 05:21:00,27.0,25.0,-100.00,NNW,340,2.0,4.0,91,-99.99,,,-99.99,,2013-02-26 10:21:00,
2013-02-26 05:32:00,28.0,26.0,-100.00,North,0,1.0,3.0,92,-99.99,,,-99.99,,2013-02-26 10:32:00,
2013-02-26 05:42:00,29.0,27.0,-100.00,North,355,1.0,3.0,92,-99.99,,,-99.99,,2013-02-26 10:42:00,
2013-02-26 05:52:00,30.0,28.0,-100.00,NW,315,0.0,2.0,92,-99.99,,,-99.99,,2013-02-26 10:52:00,
2013-02-26 06:01:00,30.0,28.0,-100.00,NW,315,0.0,2.0,92,-99.99,,,-99.99,,2013-02-26 11:01:00,
2013-02-26 06:12:00,30.0,29.0,-100.00,NNW,335,1.0,2.0,93,-99.99,,,-99.99,,2013-02-26 11:12:00,
2013-02-26 06:22:00,30.0,29.0,-100.00,NNW,335,1.0,2.0,93,-99.99,,,-99.99,,2013-02-26 11:22:00,
2013-02-26 06:32:00,31.0,29.0,-100.00,West,275,1.0,2.0,93,-99.99,,,-99.99,,2013-02-26 11:32:00,
2013-02-26 06:42:00,31.0,29.0,-100.00,WNW,290,2.0,3.0,94,-99.99,,,-99.99,,2013-02-26 11:42:00,
2013-02-26 06:52:00,31.0,29.0,-100.00,NNW,335,1.0,3.0,94,-99.99,,,-99.99,,2013-02-26 11:52:00,
2013-02-26 07:02:00,31.0,29.0,-100.00,NNW,335,1.0,3.0,94,-99.99,,,-99.99,,2013-02-26 12:02:00,
2013-02-26 07:11:00,31.0,29.0,-100.00,NNW,335,2.0,3.0,94,-99.99,,,-99.99,,2013-02-26 12:11:00,
2013-02-26 07:22:00,31.0,30.0,-100.00,NNW,330,2.0,4.0,94,-99.99,,,-99.99,,2013-02-26 12:22:00,
2013-02-26 07:32:00,31.0,30.0,-100.00,NNW,330,2.0,4.0,94,-99.99,,,-99.99,,2013-02-26 12:32:00,
2013-02-26 07:42:00,31.0,30.0,-100.00,NNW,340,1.0,4.0,94,-99.99,,,-99.99,,2013-02-26 12:42:00,
2013-02-26 07:52:00,32.0,31.0,-100.00,North,10,2.0,4.0,94,-99.99,,,-99.99,,2013-02-26 12:52:00,
2013-02-26 08:02:00,32.0,31.0,-100.00,North,10,2.0,4.0,94,-99.99,,,-99.99,,2013-02-26 13:02:00,
2013-02-26 08:11:00,33.0,31.0,-100.00,North,355,2.0,5.0,94,-99.99,,,-99.99,,2013-02-26 13:11:00,
2013-02-26 08:22:00,33.0,31.0,-100.00,North,0,2.0,3.0,93,-99.99,,,-99.99,,2013-02-26 13:22:00,
2013-02-26 08:32:00,33.0,31.0,-100.00,North,0,2.0,3.0,93,-99.99,,,-99.99,,2013-02-26 13:32:00,
2013-02-26 08:42:00,33.0,31.0,-100.00,NNE,25,2.0,6.0,92,-99.99,,,-99.99,,2013-02-26 13:42:00,
2013-02-26 08:51:00,34.0,32.0,-100.00,North,0,1.0,7.0,91,-99.99,,,-99.99,,2013-02-26 13:51:00,
2013-02-26 09:01:00,34.0,32.0,-100.00,North,0,1.0,7.0,91,-99.99,,,-99.99,,2013-02-26 14:01:00,
2013-02-26 09:11:00,35.0,32.0,-100.00,North,0,3.0,6.0,90,-99.99,,,-99.99,,2013-02-26 14:11:00,
2013-02-26 09:21:00,35.0,32.0,-100.00,North,0,4.0,7.0,88,-99.99,,,-99.99,,2013-02-26 14:21:00,
2013-02-26 09:32:00,35.0,32.0,-100.00,North,0,4.0,7.0,88,-99.99,,,-99.99,,2013-02-26 14:32:00,
2013-02-26 09:42:00,37.0,33.0,-100.00,North,0,6.0,11.0,84,-99.99,,,-99.99,,2013-02-26 14:42:00,
2013-02-26 09:52:00,37.0,32.0,-100.00,North,0,3.0,11.0,82,-99.99,,,-99.99,,2013-02-26 14:52:00,
2013-02-26 10:02:00,37.0,32.0,-100.00,North,0,3.0,11.0,82,-99.99,,,-99.99,,2013-02-26 15:02:00,
2013-02-26 10:11:00,38.0,32.0,-100.00,North,0,2.0,10.0,76,-99.99,,,-99.99,,2013-02-26 15:11:00,
2013-02-26 10:22:00,38.0,32.0,-100.00,North,0,2.0,10.0,76,-99.99,,,-99.99,,2013-02-26 15:22:00,
2013-02-26 10:32:00,39.0,30.0,-100.00,NNE,25,3.0,10.0,69,-99.99,,,-99.99,,2013-02-26 15:32:00,
2013-02-26 10:42:00,39.0,28.0,-100.00,NNE,25,7.0,13.0,65,-99.99,,,-99.99,,2013-02-26 15:42:00,
2013-02-26 10:52:00,39.0,28.0,-100.00,NNE,25,7.0,13.0,65,-99.99,,,-99.99,,2013-02-26 15:52:00,
2013-02-26 11:02:00,39.0,28.0,-100.00,North,0,6.0,15.0,64,-99.99,,,-99.99,,2013-02-26 16:02:00,
2013-02-26 11:11:00,39.0,28.0,-100.00,NNE,30,6.0,11.0,64,-99.99,,,-99.99,,2013-02-26 16:11:00,
2013-02-26 11:22:00,40.0,28.0,-100.00,NNE,15,4.0,11.0,63,-99.99,,,-99.99,,2013-02-26 16:22:00,
2013-02-26 11:32:00,40.0,28.0,-100.00,NNE,15,4.0,11.0,63,-99.99,,,-99.99,,2013-02-26 16:32:00,
2013-02-26 11:42:00,40.0,28.0,-100.00,North,0,5.0,11.0,63,-99.99,,,-99.99,,2013-02-26 16:42:00,
2013-02-26 11:52:00,40.0,28.0,-100.00,North,0,5.0,11.0,63,-99.99,,,-99.99,,2013-02-26 16:52:00,
2013-02-26 12:01:00,40.0,28.0,-100.00,North,0,6.0,14.0,63,-99.99,,,-99.99,,2013-02-26 17:01:00,
2013-02-26 12:11:00,40.0,29.0,-100.00,NNE,15,3.0,12.0,65,-99.99,,,-99.99,,2013-02-26 17:11:00,
2013-02-26 12:21:00,40.0,29.0,-100.00,NNE,15,3.0,12.0,65,-99.99,,,-99.99,,2013-02-26 17:21:00,
2013-02-26 12:32:00,40.0,29.0,-100.00,NNE,25,6.0,11.0,65,-99.99,,,-99.99,,2013-02-26 17:32:00,
2013-02-26 12:42:00,41.0,31.0,-100.00,North,5,7.0,12.0,67,-99.99,,,-99.99,,2013-02-26 17:42:00,
2013-02-26 12:52:00,41.0,32.0,-100.00,NNE,20,4.0,11.0,71,-99.99,,,-99.99,,2013-02-26 17:52:00,
2013-02-26 13:02:00,41.0,32.0,-100.00,NNE,20,4.0,11.0,71,-99.99,,,-99.99,,2013-02-26 18:02:00,
2013-02-26 13:12:00,41.0,33.0,-100.00,NNE,30,4.0,9.0,74,-99.99,,,-99.99,,2013-02-26 18:12:00,
2013-02-26 13:21:00,41.0,33.0,-100.00,NNE,30,4.0,9.0,74,-99.99,,,-99.99,,2013-02-26 18:21:00,
2013-02-26 13:32:00,41.0,35.0,-100.00,North,0,3.0,7.0,79,-99.99,,,-99.99,,2013-02-26 18:32:00,
2013-02-26 13:42:00,41.0,36.0,-100.00,North,0,4.0,12.0,82,-99.99,,,-99.99,,2013-02-26 18:42:00,
2013-02-26 13:52:00,41.0,36.0,-100.00,North,0,4.0,12.0,82,-99.99,,,-99.99,,2013-02-26 18:52:00,
2013-02-26 14:01:00,41.0,37.0,-100.00,North,10,4.0,9.0,85,-99.99,,,-99.99,,2013-02-26 19:01:00,
2013-02-26 14:11:00,42.0,38.0,-100.00,North,5,7.0,14.0,87,-99.99,,,-99.99,,2013-02-26 19:11:00,
2013-02-26 14:22:00,42.0,38.0,-100.00,North,5,7.0,14.0,87,-99.99,,,-99.99,,2013-02-26 19:22:00,
2013-02-26 14:32:00,42.0,38.0,-100.00,NE,35,7.0,12.0,87,-99.99,,,-99.99,,2013-02-26 19:32:00,
2013-02-26 14:42:00,42.0,38.0,-100.00,NNE,20,4.0,16.0,88,-99.99,,,-99.99,,2013-02-26 19:42:00,
2013-02-26 14:52:00,42.0,38.0,-100.00,NNE,20,4.0,16.0,88,-99.99,,,-99.99,,2013-02-26 19:52:00,
2013-02-26 15:01:00,42.0,38.0,-100.00,NNE,20,7.0,14.0,89,-99.99,,,-99.99,,2013-02-26 20:01:00,
2013-02-26 15:11:00,42.0,39.0,-100.00,North,0,7.0,16.0,90,-99.99,,,-99.99,,2013-02-26 20:11:00,
2013-02-26 15:21:00,41.0,39.0,-100.00,NNE,25,7.0,15.0,92,-99.99,,,-99.99,,2013-02-26 20:21:00,
2013-02-26 15:32:00,41.0,39.0,-100.00,NNE,25,7.0,15.0,92,-99.99,,,-99.99,,2013-02-26 20:32:00,
2013-02-26 15:41:00,41.0,39.0,-100.00,NNE,15,5.0,14.0,92,-99.99,,,-99.99,,2013-02-26 20:41:00,
2013-02-26 15:52:00,42.0,40.0,-100.00,North,0,7.0,20.0,93,-99.99,,,-99.99,,2013-02-26 20:52:00,
2013-02-26 16:01:00,42.0,40.0,-100.00,North,0,7.0,20.0,93,-99.99,,,-99.99,,2013-02-26 21:01:00,
2013-02-26 16:11:00,42.0,40.0,-100.00,NNE,20,8.0,26.0,93,-99.99,,,-99.99,,2013-02-26 21:11:00,
2013-02-26 16:21:00,42.0,40.0,-100.00,North,10,11.0,26.0,93,-99.99,,,-99.99,,2013-02-26 21:21:00,
2013-02-26 16:31:00,42.0,40.0,-100.00,North,10,11.0,26.0,93,-99.99,,,-99.99,,2013-02-26 21:31:00,
2013-02-26 16:41:00,42.0,40.0,-100.00,NNE,25,12.0,26.0,93,-99.99,,,-99.99,,2013-02-26 21:41:00,
2013-02-26 16:51:00,42.0,40.0,-100.00,NNE,25,12.0,26.0,93,-99.99,,,-99.99,,2013-02-26 21:51:00,
2013-02-26 17:01:00,42.0,40.0,-100.00,North,10,11.0,24.0,93,-99.99,,,-99.99,,2013-02-26 22:01:00,
2013-02-26 17:11:00,42.0,39.0,-100.00,North,0,15.0,28.0,90,-99.99,,,-99.99,,2013-02-26 22:11:00,
2013-02-26 17:21:00,42.0,39.0,-100.00,North,10,14.0,32.0,89,-99.99,,,-99.99,,2013-02-26 22:21:00,
2013-02-26 17:32:00,42.0,39.0,-100.00,North,10,14.0,32.0,89,-99.99,,,-99.99,,2013-02-26 22:32:00,
2013-02-26 17:42:00,42.0,39.0,-100.00,NE,35,12.0,29.0,89,-99.99,,,-99.99,,2013-02-26 22:42:00,
2013-02-26 17:51:00,42.0,39.0,-100.00,NNE,30,13.0,30.0,90,-99.99,,,-99.99,,2013-02-26 22:51:00,
2013-02-26 18:01:00,42.0,39.0,-100.00,NNE,30,13.0,30.0,90,-99.99,,,-99.99,,2013-02-26 23:01:00,
2013-02-26 18:11:00,42.0,39.0,-100.00,NNE,25,12.0,30.0,90,-99.99,,,-99.99,,2013-02-26 23:11:00,
2013-02-26 18:21:00,42.0,39.0,-100.00,NNE,25,12.0,30.0,90,-99.99,,,-99.99,,2013-02-26 23:21:00,
2013-02-26 18:32:00,42.0,39.0,-100.00,NNE,15,11.0,27.0,91,-99.99,,,-99.99,,2013-02-26 23:32:00,
2013-02-26 18:41:00,42.0,40.0,-100.00,NNE,20,13.0,26.0,92,-99.99,,,-99.99,,2013-02-26 23:41:00,
2013-02-26 18:52:00,42.0,40.0,-100.00,North,10,12.0,24.0,94,-99.99,,,-99.99,,2013-02-26 23:52:00,
2013-02-26 19:02:00,42.0,40.0,-100.00,North,10,12.0,24.0,94,-99.99,,,-99.99,,2013-02-27 00:02:00,
2013-02-26 19:11:00,42.0,41.0,-100.00,NNE,20,10.0,30.0,96,-99.99,,,-99.99,,2013-02-27 00:11:00,
2013-02-26 19:22:00,42.0,41.0,-100.00,NNE,20,10.0,30.0,96,-99.99,,,-99.99,,2013-02-27 00:22:00,
2013-02-26 19:32:00,42.0,41.0,-100.00,NNE,30,14.0,27.0,97,-99.99,,,-99.99,,2013-02-27 00:32:00,
2013-02-26 19:42:00,42.0,41.0,-100.00,NE,35,14.0,31.0,97,-99.99,,,-99.99,,2013-02-27 00:42:00,
2013-02-26 19:51:00,42.0,41.0,-100.00,NE,35,14.0,31.0,97,-99.99,,,-99.99,,2013-02-27 00:51:00,
2013-02-26 20:01:00,42.0,42.0,-100.00,NNE,30,9.0,33.0,98,-99.99,,,-99.99,,2013-02-27 01:01:00,
2013-02-26 20:11:00,42.0,42.0,-100.00,NNE,25,13.0,29.0,98,-99.99,,,-99.99,,2013-02-27 01:11:00,
2013-02-26 20:22:00,42.0,42.0,-100.00,NNE,25,13.0,29.0,98,-99.99,,,-99.99,,2013-02-27 01:22:00,
2013-02-26 20:32:00,42.0,42.0,-100.00,North,0,9.0,25.0,98,-99.99,,,-99.99,,2013-02-27 01:32:00,
2013-02-26 20:42:00,42.0,42.0,-100.00,North,5,14.0,25.0,98,-99.99,,,-99.99,,2013-02-27 01:42:00,
2013-02-26 20:51:00,42.0,42.0,-100.00,North,10,12.0,29.0,98,-99.99,,,-99.99,,2013-02-27 01:51:00,
2013-02-26 21:01:00,42.0,42.0,-100.00,North,10,12.0,29.0,98,-99.99,,,-99.99,,2013-02-27 02:01:00,
2013-02-26 21:15:00,42.0,42.0,-100.00,North,0,12.0,26.0,98,-99.99,,,-99.99,,2013-02-27 02:15:00,
2013-02-26 21:23:00,42.0,42.0,-100.00,North,10,13.0,24.0,98,-99.99,,,-99.99,,2013-02-27 02:23:00,
2013-02-26 21:32:00,42.0,42.0,-100.00,North,10,13.0,24.0,98,-99.99,,,-99.99,,2013-02-27 02:32:00,
2013-02-26 21:42:00,43.0,42.0,-100.00,North,0,9.0,27.0,99,-99.99,,,-99.99,,2013-02-27 02:42:00,
2013-02-26 21:52:00,43.0,43.0,-100.00,North,0,10.0,23.0,99,-99.99,,,-99.99,,2013-02-27 02:52:00,
2013-02-26 22:02:00,43.0,43.0,-100.00,North,0,10.0,23.0,99,-99.99,,,-99.99,,2013-02-27 03:02:00,
2013-02-26 22:11:00,44.0,43.0,-100.00,North,10,7.0,23.0,99,-99.99,,,-99.99,,2013-02-27 03:11:00,
2013-02-26 22:22:00,44.0,43.0,-100.00,North,10,7.0,23.0,99,-99.99,,,-99.99,,2013-02-27 03:22:00,
2013-02-26 22:32:00,44.0,44.0,-100.00,NNE,20,9.0,20.0,99,-99.99,,,-99.99,,2013-02-27 03:32:00,
2013-02-26 22:42:00,44.0,44.0,-100.00,North,0,8.0,19.0,99,-99.99,,,-99.99,,2013-02-27 03:42:00,
2013-02-26 22:52:00,45.0,44.0,-100.00,NNE,20,11.0,21.0,99,-99.99,,,-99.99,,2013-02-27 03:52:00,
2013-02-26 23:02:00,45.0,44.0,-100.00,NNE,20,11.0,21.0,99,-99.99,,,-99.99,,2013-02-27 04:02:00,
2013-02-26 23:12:00,45.0,45.0,-100.00,North,5,6.0,19.0,99,-99.99,,,-99.99,,2013-02-27 04:12:00,
2013-02-26 23:22:00,45.0,45.0,-100.00,North,5,6.0,19.0,99,-99.99,,,-99.99,,2013-02-27 04:22:00,
2013-02-26 23:32:00,45.0,45.0,-100.00,North,0,4.0,18.0,99,-99.99,,,-99.99,,2013-02-27 04:32:00,
2013-02-26 23:42:00,45.0,45.0,-100.00,NNW,330,4.0,13.0,99,-99.99,,,-99.99,,2013-02-27 04:42:00,
2013-02-26 23:52:00,45.0,45.0,-100.00,NNW,330,4.0,13.0,99,-99.99,,,-99.99,,2013-02-27 04:52:00,